Regional Weather Roundup
Issued by NWS Charleston, WV

Home | Current Version | Previous Version | Text Only | Print | Product List | Glossary Off
Versions: 1 2 3 4 5 6 7 8 9 10 11 12 13 14 15 16 17 18 19 20 21 22 23 24 25 26 27 28 29 30 31 32 33 34 35 36 37 38 39 40 41 42 43 44 45 46 47 48 49 50

000
ASUS41 KRLX 232210
RWRRLX
CRWRWRRLX ALL
West Virginia Regional Weather Roundup
National Weather Service Charleston WV
Issued by National Weather Service Pittsburgh PA
600 PM EDT TUE AUG 23 2016

Note: "fair" indicates few or no clouds below 12,000 feet with no
significant weather and/or obstructions to visibility.

WVZ003-232300-
Northern Panhandle of West Virginia

CITY           SKY/WX    TMP DP  RH WIND       PRES   REMARKS
WHEELING       CLOUDY    80  56  43 SE5       30.27S HX  80
$$

WVZ009-232300-
Northwest West Virginia

CITY           SKY/WX    TMP DP  RH WIND       PRES   REMARKS
PARKERSBURG    SUNNY     83  55  38 CALM      30.26F HX  82
$$

WVZ006-232300-
Western West Virginia

CITY           SKY/WX    TMP DP  RH WIND       PRES   REMARKS
HUNTINGTON     SUNNY     83  59  44 CALM      30.23F HX  83
$$

WVZ015-232300-
West Central West Virginia

CITY           SKY/WX    TMP DP  RH WIND       PRES   REMARKS
CHARLESTON     MOSUNNY   84  60  44 W6        30.24S HX  84
$$

WVZ031-232300-
North Central West Virginia

CITY           SKY/WX    TMP DP  RH WIND       PRES   REMARKS
CLARKSBURG     SUNNY     82  58  43 W5        30.26F HX  82
MORGANTOWN     SUNNY     82  56  40 CALM      30.28S HX  82
$$

WVZ035-042-232300-
South Central West Virginia

CITY           SKY/WX    TMP DP  RH WIND       PRES   REMARKS
BECKLEY        MOSUNNY   78  58  49 S5        30.31F
BLUEFIELD      MOSUNNY   75  58  55 CALM      30.34S
$$

WVZ045-232300-
Greenbrier Valley of West Virginia

CITY           SKY/WX    TMP DP  RH WIND       PRES   REMARKS
LEWISBURG      MOSUNNY   78  55  44 S3        30.32F
$$

WVZ047-232300-
Northern Mountains of West Virginia

CITY           SKY/WX    TMP DP  RH WIND       PRES   REMARKS
ELKINS         SUNNY     79  57  46 W6        30.30S HX  80
$$

WVZ052-232300-
Eastern Panhandle of West Virginia

CITY           SKY/WX    TMP DP  RH WIND       PRES   REMARKS
MARTINSBURG    SUNNY     80  61  52 S6        30.26F HX  81
PETERSBURG     MOSUNNY   84  61  45 S3        30.25S HX  84
$$




USA.gov is the U.S. government's official web portal to all federal, state and local government web resources and services.